UTMN (RS23S)

Last updated on Thu May 09 2024 00:02:57 GMT+0000 (Coordinated Universal Time)

1 53376U 22096G 24129.01641359 .04146406 24791-5 11310-2 0 9991 2 53376 97.3646 50.9657 0008560 195.9142 164.1884 16.28044685 98297

Satellite not in orbit